| time (UTC) | temp C | wind direction | speed KPH | gust KPH | rain 1hr cm | rain 24hr cm | rain mn cm | humidity % | barometer mb |
| 20260505051525 | 7 | 266 | 11.3 | 27.4 | 0.00 | 1.65 | 0.00 | 82 | 1006.6 |
| 20260505041513 | 8 | 252 | 11.3 | 27.4 | 0.00 | 1.75 | 0.00 | 79 | 1006.0 |
| 20260505040010 | 8 | 257 | 9.7 | 25.7 | 0.00 | 1.78 | 0.00 | 78 | 1005.9 |
| 20260505034508 | 8 | 253 | 9.7 | 30.6 | 0.00 | 1.78 | 0.00 | 78 | 1005.8 |
| 20260505033010 | 8 | 279 | 8.0 | 30.6 | 0.00 | 1.78 | 0.00 | 77 | 1005.5 |
| 20260505031501 | 8 | 267 | 6.4 | 27.4 | 0.00 | 1.78 | 0.00 | 76 | 1005.5 |
| 20260505030117 | 9 | 210 | 8.0 | 25.7 | 0.00 | 1.78 | 0.00 | 75 | 1005.2 |
| 20260505024611 | 9 | 230 | 9.7 | 24.1 | 0.00 | 1.80 | 1.78 | 74 | 1005.0 |
| 20260505023057 | 9 | 221 | 9.7 | 24.1 | 0.00 | 1.80 | 1.78 | 74 | 1004.8 |
| 20260505021555 | 10 | 265 | 11.3 | 32.2 | 0.00 | 1.80 | 1.78 | 73 | 1004.8 |
| 20260505020106 | 10 | 232 | 9.7 | 30.6 | 0.00 | 1.80 | 1.78 | 73 | 1004.8 |
| 20260505014554 | 10 | 255 | 9.7 | 19.3 | 0.00 | 1.83 | 1.78 | 73 | 1004.6 |
| 20260505013053 | 10 | 260 | 9.7 | 30.6 | 0.00 | 1.83 | 1.78 | 72 | 1004.5 |
| 20260505011553 | 10 | 242 | 11.3 | 25.7 | 0.00 | 1.83 | 1.78 | 72 | 1004.5 |
| 20260505010107 | 10 | 232 | 11.3 | 32.2 | 0.00 | 1.83 | 1.78 | 71 | 1004.4 |
| 20260505004601 | 10 | 211 | 6.4 | 17.7 | 0.00 | 1.93 | 1.78 | 70 | 1004.2 |
| 20260505003051 | 10 | 228 | 11.3 | 24.1 | 0.00 | 1.93 | 1.78 | 69 | 1004.0 |
| 20260505001545 | 10 | 198 | 11.3 | 25.7 | 0.00 | 1.93 | 1.78 | 67 | 1003.9 |
| 20260505000142 | 10 | 226 | 6.4 | 20.9 | 0.00 | 1.93 | 1.78 | 63 | 1003.6 |
| 20260504234541 | 10 | 244 | 8.0 | 32.2 | 0.00 | 2.24 | 1.78 | 61 | 1003.4 |
| 20260504233039 | 10 | 261 | 11.3 | 27.4 | 0.00 | 2.24 | 1.78 | 57 | 1003.0 |
| 20260504231540 | 9 | 218 | 6.4 | 17.7 | 0.00 | 2.24 | 1.78 | 63 | 1002.7 |
| 20260504230037 | 9 | 226 | 3.2 | 8.0 | 0.00 | 2.49 | 1.78 | 63 | 1002.6 |
| 20260504224540 | 10 | 238 | 0.0 | 8.0 | 0.00 | 2.49 | 1.78 | 59 | 1002.5 |
| 20260504223033 | 10 | 233 | 8.0 | 19.3 | 0.00 | 2.49 | 1.78 | 54 | 1002.4 |
| 20260504221538 | 11 | 181 | 11.3 | 20.9 | 0.00 | 2.49 | 1.78 | 54 | 1002.3 |
| 20260504220030 | 11 | 260 | 8.0 | 27.4 | 0.00 | 2.79 | 1.78 | 54 | 1002.0 |
| 20260504214529 | 11 | 203 | 6.4 | 22.5 | 0.00 | 2.79 | 1.78 | 52 | 1001.9 |
| 20260504213036 | 11 | 191 | 12.9 | 37.0 | 0.00 | 2.79 | 1.78 | 53 | 1001.6 |
| 20260504211532 | 11 | 274 | 11.3 | 29.0 | 0.00 | 2.79 | 1.78 | 54 | 1001.4 |
| 20260504210023 | 12 | 236 | 9.7 | 41.8 | 0.00 | 2.90 | 1.78 | 53 | 1001.3 |
| 20260504204520 | 12 | 227 | 9.7 | 29.0 | 0.00 | 2.90 | 1.78 | 55 | 1001.1 |
| 20260504203018 | 11 | 283 | 12.9 | 48.3 | 0.00 | 2.90 | 1.78 | 54 | 1000.9 |
| 20260504201515 | 11 | 26 | 12.9 | 40.2 | 0.00 | 2.90 | 1.78 | 56 | 1000.7 |
| 20260504200014 | 11 | 286 | 20.9 | 41.8 | 0.00 | 3.05 | 1.78 | 57 | 1000.6 |
| 20260504194517 | 11 | 254 | 24.1 | 40.2 | 0.00 | 3.05 | 1.78 | 59 | 1000.3 |
| 20260504193011 | 11 | 262 | 20.9 | 43.5 | 0.00 | 3.05 | 1.78 | 63 | 1000.0 |
| 20260504191505 | 11 | 229 | 19.3 | 37.0 | 0.00 | 3.05 | 1.78 | 66 | 999.9 |
| 20260504190002 | 11 | 177 | 11.3 | 46.7 | 0.00 | 3.17 | 1.78 | 69 | 999.7 |
| 20260504184609 | 10 | 256 | 16.1 | 40.2 | 0.00 | 3.17 | 1.78 | 73 | 999.5 |
| 20260504183058 | 10 | 301 | 20.9 | 43.5 | 0.00 | 3.17 | 1.78 | 73 | 999.3 |
| 20260504181554 | 9 | 274 | 12.9 | 41.8 | 0.00 | 3.17 | 1.78 | 77 | 999.3 |
| 20260504180052 | 9 | 250 | 17.7 | 53.1 | 0.00 | 3.17 | 1.78 | 78 | 999.0 |
| 20260504174548 | 8 | 188 | 12.9 | 40.2 | 0.00 | 3.17 | 1.78 | 81 | 998.8 |
| 20260504173045 | 8 | 236 | 17.7 | 40.2 | 0.00 | 3.17 | 1.78 | 83 | 998.5 |
| 20260504171545 | 8 | 271 | 16.1 | 45.1 | 0.00 | 3.17 | 1.78 | 84 | 998.3 |
| 20260504081556 | 2 | 238 | 8.0 | 29.0 | 0.05 | 1.78 | 0.38 | 95 | 978.3 |